,,Stat1,,Stat2,,Stat3,,Stat4,,Wind1,,Wind1,
time,status,PR1M_SUM,status,RH1M_AVG,status,SR1M_AVG,status,TA1M_AVG,status,W1dAve1m,status,W1sAve1m,
2000-03-09, 00:01:00,VALID,0,VALID,95.4174,VALID,-0.0169808,VALID,17.7015,VALID,166,VALID,0.874428,
2000-03-09, 00:02:01,VALID,0,VALID,96.5033,VALID,0,VALID,17.6697,VALID,168,VALID,0.896537,
2000-03-09, 00:03:01,VALID,0,VALID,97.0272,VALID,0,VALID,17.6824,VALID,171,VALID,0.903045,
2000-03-09, 00:04:00,VALID,0,VALID,97.0044,VALID,0,VALID,17.6888,VALID,170,VALID,0.806127,
2000-03-09, 00:05:00,VALID,0,VALID,96.6102,VALID,0,VALID,17.7018,VALID,174,VALID,0.559005,
2000-03-09, 00:06:00,VALID,0,VALID,95.8154,VALID,-0.0169808,VALID,17.6501,VALID,174,VALID,0.288851,
2000-03-09, 00:07:00,VALID,0,VALID,95.5891,VALID,0,VALID,17.6243,VALID,175,VALID,0.110243,
2000-03-09, 00:08:00,VALID,0,VALID,93.8317,VALID,0,VALID,17.527,VALID,166,VALID,0,
2000-03-09, 00:09:00,VALID,0,VALID,92.5843,VALID,0,VALID,17.3884,VALID,143,VALID,0.22561,
2000-03-09, 00:10:00,VALID,0,VALID,93.0166,VALID,0,VALID,17.2428,VALID,137,VALID,0.599805,
2000-03-09, 00:11:00,VALID,0,VALID,94.4561,VALID,-0.0169808,VALID,17.1885,VALID,138,VALID,0.500822,
2000-03-09, 00:12:01,VALID,0,VALID,96.9014,VALID,0,VALID,17.2596,VALID,146,VALID,0.590039,
2000-03-09, 00:13:00,VALID,0,VALID,96.9179,VALID,0,VALID,17.2821,VALID,158,VALID,0.532118,
2000-03-09, 00:14:01,VALID,0,VALID,97.2828,VALID,-0.0169808,VALID,17.292,VALID,163,VALID,0.570898,
2000-03-09, 00:15:00,VALID,0,VALID,97.1811,VALID,-0.101885,VALID,17.3127,VALID,164,VALID,0.457422,
2000-03-09, 00:16:00,VALID,0,VALID,96.7742,VALID,-0.101885,VALID,17.2899,VALID,167,VALID,0.515214,
2000-03-09, 00:17:00,VALID,0,VALID,97.1875,VALID,-0.101885,VALID,17.3162,VALID,167,VALID,0.550781,
2000-03-09, 00:18:00,VALID,0,VALID,97.2994,VALID,-0.118866,VALID,17.342,VALID,167,VALID,0.571957,
2000-03-09, 00:19:00,VALID,0,VALID,97.2256,VALID,-0.135847,VALID,17.3777,VALID,167,VALID,0.467272,
2000-03-09, 00:20:00,VALID,0,VALID,96.8543,VALID,-0.101885,VALID,17.3648,VALID,167,VALID,0.370683,
2000-03-09, 00:21:00,VALID,0,VALID,96.8772,VALID,-0.118866,VALID,17.348,VALID,167,VALID,0.421258,
2000-03-09, 00:22:00,VALID,0,VALID,96.2401,VALID,-0.0339617,VALID,17.2959,VALID,169,VALID,0.135861,
2000-03-09, 00:23:00,VALID,0,VALID,96.3482,VALID,0,VALID,17.2626,VALID,169,VALID,0,
2000-03-09, 00:24:00,VALID,0,VALID,96.5211,VALID,-0.0169808,VALID,17.2438,VALID,169,VALID,0,
2000-03-09, 00:25:01,VALID,0,VALID,96.9268,VALID,0,VALID,17.26,VALID,169,VALID,0,
2000-03-09, 00:26:00,VALID,0,VALID,97.2917,VALID,0,VALID,17.2989,VALID,169,VALID,0,
2000-03-09, 00:27:00,VALID,0,VALID,97.2536,VALID,-0.0169808,VALID,17.3116,VALID,169,VALID,0,
2000-03-09, 00:28:00,VALID,0,VALID,97.5054,VALID,-0.0169808,VALID,17.3603,VALID,193,VALID,0.10617,
2000-03-09, 00:29:00,VALID,0,VALID,97.8538,VALID,-0.0169808,VALID,17.4382,VALID,204,VALID,0.311883,
2000-03-09, 00:30:00,VALID,0,VALID,97.9937,VALID,-0.0169808,VALID,17.5124,VALID,216,VALID,0.327474,
2000-03-09, 00:31:00,VALID,0,VALID,97.7749,VALID,-0.0169808,VALID,17.5346,VALID,225,VALID,0.244866,
2000-03-09, 00:32:00,VALID,0,VALID,97.7088,VALID,-0.0339617,VALID,17.5511,VALID,225,VALID,0.0600329,
2000-03-09, 00:33:00,VALID,0,VALID,97.7177,VALID,0,VALID,17.5567,VALID,225,VALID,0,
2000-03-09, 00:34:00,VALID,0,VALID,97.8106,VALID,0,VALID,17.6254,VALID,225,VALID,0,
2000-03-09, 00:35:01,VALID,0,VALID,97.5015,VALID,-0.0679233,VALID,17.6508,VALID,225,VALID,0,
2000-03-09, 00:36:00,VALID,0,VALID,96.4092,VALID,-0.0339617,VALID,17.6383,VALID,225,VALID,0,
2000-03-09, 00:37:00,VALID,0,VALID,96.1905,VALID,0,VALID,17.7123,VALID,226,VALID,0,
2000-03-09, 00:38:00,VALID,0,VALID,95.823,VALID,0.0169808,VALID,17.8059,VALID,253,VALID,0,
2000-03-09, 00:39:00,VALID,0,VALID,94.2043,VALID,0.0169808,VALID,17.8608,VALID,280,VALID,0,
2000-03-09, 00:40:00,VALID,0,VALID,92.0362,VALID,0,VALID,17.8481,VALID,280,VALID,0,
2000-03-09, 00:41:00,VALID,0,VALID,93.0395,VALID,0,VALID,17.8255,VALID,265,VALID,0,
2000-03-09, 00:42:00,VALID,0,VALID,93.9296,VALID,0,VALID,17.7963,VALID,191,VALID,0,
2000-03-09, 00:43:00,VALID,0,VALID,93.6499,VALID,0,VALID,17.7158,VALID,190,VALID,0,
2000-03-09, 00:44:00,VALID,0,VALID,94.5654,VALID,0,VALID,17.6572,VALID,190,VALID,0,
2000-03-09, 00:45:00,VALID,0,VALID,94.8108,VALID,0,VALID,17.6316,VALID,190,VALID,0,
2000-03-09, 00:46:00,VALID,0,VALID,95.0041,VALID,0.0169808,VALID,17.5892,VALID,190,VALID,0,
2000-03-09, 00:47:00,VALID,0,VALID,95.7175,VALID,0,VALID,17.6215,VALID,190,VALID,0,
2000-03-09, 00:48:00,VALID,0,VALID,95.9388,VALID,-0.0169808,VALID,17.68,VALID,190,VALID,0,
2000-03-09, 00:49:00,VALID,0,VALID,95.5992,VALID,-0.0169808,VALID,17.6996,VALID,190,VALID,0,
2000-03-09, 00:50:00,VALID,0,VALID,95.0257,VALID,0,VALID,17.6674,VALID,190,VALID,0,
2000-03-09, 00:51:00,VALID,0,VALID,94.9444,VALID,0,VALID,17.612,VALID,190,VALID,0,
2000-03-09, 00:52:00,VALID,0,VALID,94.6366,VALID,0,VALID,17.5961,VALID,190,VALID,0,
2000-03-09, 00:53:00,VALID,0,VALID,94.9316,VALID,0,VALID,17.5638,VALID,190,VALID,0,
2000-03-09, 00:54:00,VALID,0,VALID,95.4085,VALID,0.0339617,VALID,17.5634,VALID,190,VALID,0,
2000-03-09, 00:55:00,VALID,0,VALID,95.7213,VALID,-0.0169808,VALID,17.5864,VALID,190,VALID,0,
2000-03-09, 00:56:00,VALID,0,VALID,95.8612,VALID,0,VALID,17.6026,VALID,187,VALID,0,
2000-03-09, 00:57:00,VALID,0,VALID,95.5916,VALID,0.0339617,VALID,17.6607,VALID,185,VALID,0,
2000-03-09, 00:58:00,VALID,0,VALID,95.0295,VALID,0,VALID,17.687,VALID,185,VALID,0,
2000-03-09, 00:59:00,VALID,0,VALID,94.8897,VALID,0.0169808,VALID,17.7216,VALID,179,VALID,0.125411,
2000-03-09, 01:00:00,VALID,0,VALID,94.4522,VALID,0.0169808,VALID,17.7769,VALID,153,VALID,0,
2000-03-09, 01:01:00,VALID,0,VALID,93.9004,VALID,0.0169808,VALID,17.8156,VALID,152,VALID,0,
2000-03-09, 01:02:00,VALID,0,VALID,93.5787,VALID,-0.0169808,VALID,17.835,VALID,151,VALID,0,
2000-03-09, 01:03:00,VALID,0,VALID,93.0153,VALID,0.0169808,VALID,17.8219,VALID,148,VALID,0,
2000-03-09, 01:04:00,VALID,0,VALID,92.8437,VALID,0,VALID,17.7379,VALID,148,VALID,0,
2000-03-09, 01:05:00,VALID,0,VALID,92.967,VALID,0,VALID,17.6346,VALID,147,VALID,0,
2000-03-09, 01:06:00,VALID,0,VALID,94.0924,VALID,0,VALID,17.5475,VALID,145,VALID,0,
2000-03-09, 01:07:00,VALID,0,VALID,93.8749,VALID,0.0169808,VALID,17.4958,VALID,144,VALID,0,
2000-03-09, 01:08:00,VALID,0,VALID,94.512,VALID,0.0169808,VALID,17.4638,VALID,145,VALID,0,
2000-03-09, 01:09:00,VALID,0,VALID,94.7562,VALID,0,VALID,17.4511,VALID,146,VALID,0,
2000-03-09, 01:10:00,VALID,0,VALID,94.5298,VALID,0,VALID,17.4479,VALID,146,VALID,0,
2000-03-09, 01:11:00,VALID,0,VALID,94.2424,VALID,0,VALID,17.4384,VALID,146,VALID,0,
2000-03-09, 01:12:00,VALID,0,VALID,94.8757,VALID,0.0169808,VALID,17.4377,VALID,146,VALID,0,
2000-03-09, 01:13:00,VALID,0,VALID,94.7918,VALID,-0.0169808,VALID,17.4608,VALID,146,VALID,0,
2000-03-09, 01:14:00,VALID,0,VALID,94.292,VALID,0,VALID,17.4735,VALID,146,VALID,0,
2000-03-09, 01:15:00,VALID,0,VALID,94.5997,VALID,0.0339617,VALID,17.5023,VALID,146,VALID,0,
2000-03-09, 01:16:00,VALID,0,VALID,94.3442,VALID,0,VALID,17.5223,VALID,146,VALID,0,
2000-03-09, 01:17:00,VALID,0,VALID,94.5438,VALID,0,VALID,17.5055,VALID,146,VALID,0,
2000-03-09, 01:18:00,VALID,0,VALID,94.4255,VALID,0.0339617,VALID,17.4997,VALID,146,VALID,0,
2000-03-09, 01:19:00,VALID,0,VALID,94.3632,VALID,0,VALID,17.464,VALID,146,VALID,0,
2000-03-09, 01:20:00,VALID,0,VALID,94.0682,VALID,-0.0169808,VALID,17.458,VALID,146,VALID,0,
2000-03-09, 01:21:00,VALID,0,VALID,93.9411,VALID,0,VALID,17.4804,VALID,146,VALID,0,
2000-03-09, 01:22:00,VALID,0,VALID,93.3396,VALID,0,VALID,17.4861,VALID,146,VALID,0,
2000-03-09, 01:23:00,VALID,0,VALID,93.084,VALID,0.0169808,VALID,17.4864,VALID,152,VALID,0,
2000-03-09, 01:24:00,VALID,0,VALID,94.0008,VALID,0.0339617,VALID,17.5251,VALID,185,VALID,0,
2000-03-09, 01:25:00,VALID,0,VALID,94.2056,VALID,0,VALID,17.5385,VALID,218,VALID,0,
2000-03-09, 01:26:00,VALID,0,VALID,94.4433,VALID,0,VALID,17.5412,VALID,245,VALID,0,
2000-03-09, 01:27:00,VALID,0,VALID,94.5324,VALID,0,VALID,17.5544,VALID,254,VALID,0,
2000-03-09, 01:28:00,VALID,0,VALID,94.484,VALID,0,VALID,17.5671,VALID,254,VALID,0,
2000-03-09, 01:29:01,VALID,0,VALID,94.2246,VALID,-0.0169808,VALID,17.5707,VALID,254,VALID,0,
2000-03-09, 01:30:00,VALID,0,VALID,94.3836,VALID,0.0169808,VALID,17.5703,VALID,254,VALID,0,
2000-03-09, 01:31:00,VALID,0,VALID,93.6282,VALID,-0.0169808,VALID,17.5611,VALID,254,VALID,0,
2000-03-09, 01:32:00,VALID,0,VALID,93.2035,VALID,0,VALID,17.5279,VALID,254,VALID,0,
2000-03-09, 01:33:00,VALID,0,VALID,94.0504,VALID,0,VALID,17.5258,VALID,254,VALID,0,
2000-03-09, 01:34:00,VALID,0,VALID,94.2704,VALID,0,VALID,17.4898,VALID,254,VALID,0,
2000-03-09, 01:35:00,VALID,0,VALID,93.9614,VALID,0,VALID,17.4511,VALID,254,VALID,0,
2000-03-09, 01:36:00,VALID,0,VALID,93.9945,VALID,0,VALID,17.4089,VALID,245,VALID,0,
2000-03-09, 01:37:00,VALID,0,VALID,94.1954,VALID,0,VALID,17.351,VALID,219,VALID,0,
2000-03-09, 01:38:00,VALID,0,VALID,93.9614,VALID,0,VALID,17.2643,VALID,203,VALID,0,
2000-03-09, 01:39:00,VALID,0,VALID,94.5145,VALID,0.0169808,VALID,17.1604,VALID,185,VALID,0,
2000-03-09, 01:40:00,VALID,0,VALID,94.362,VALID,0,VALID,17.0506,VALID,177,VALID,0,
2000-03-09, 01:41:00,VALID,0,VALID,94.512,VALID,0.0169808,VALID,16.9476,VALID,174,VALID,0,
2000-03-09, 01:42:00,VALID,0,VALID,95.1745,VALID,0.0169808,VALID,16.8667,VALID,188,VALID,0,
2000-03-09, 01:43:00,VALID,0,VALID,95.9197,VALID,0.0169808,VALID,16.8445,VALID,208,VALID,0,
2000-03-09, 01:44:00,VALID,0,VALID,96.4512,VALID,0.0169808,VALID,16.8639,VALID,224,VALID,0.145148,
2000-03-09, 01:45:00,VALID,0,VALID,97.2472,VALID,0,VALID,16.9217,VALID,224,VALID,0.324002,
2000-03-09, 01:46:00,VALID,0,VALID,97.8932,VALID,0,VALID,17.0412,VALID,224,VALID,0.13125,
2000-03-09, 01:47:00,VALID,0,VALID,98.1958,VALID,0.0169808,VALID,17.1638,VALID,223,VALID,0.00308388,
2000-03-09, 01:48:00,VALID,0,VALID,97.9034,VALID,0.0509425,VALID,17.2215,VALID,223,VALID,0,
2000-03-09, 01:49:00,VALID,0,VALID,96.7958,VALID,0.0169808,VALID,17.1444,VALID,223,VALID,0,
2000-03-09, 01:50:00,VALID,0,VALID,95.9413,VALID,0.0169808,VALID,17.1089,VALID,163,VALID,0.250206,
2000-03-09, 01:51:00,VALID,0,VALID,93.9767,VALID,0.0169808,VALID,16.9893,VALID,154,VALID,0.345806,
2000-03-09, 01:52:00,VALID,0,VALID,92.4126,VALID,0,VALID,16.8152,VALID,151,VALID,0.397294,
2000-03-09, 01:53:00,VALID,0,VALID,93.4782,VALID,0.0169808,VALID,16.7118,VALID,144,VALID,0.362305,
2000-03-09, 01:54:00,VALID,0,VALID,94.9062,VALID,0,VALID,16.6799,VALID,143,VALID,0.0941612,
2000-03-09, 01:55:00,VALID,0,VALID,95.7989,VALID,0,VALID,16.6829,VALID,143,VALID,0,
2000-03-09, 01:56:00,VALID,0,VALID,96.3266,VALID,0,VALID,16.7223,VALID,143,VALID,0,
2000-03-09, 01:57:00,VALID,0,VALID,96.9115,VALID,0,VALID,16.7769,VALID,143,VALID,0,
2000-03-09, 01:58:00,VALID,0,VALID,97.0984,VALID,-0.0169808,VALID,16.8352,VALID,143,VALID,0,
2000-03-09, 01:59:00,VALID,0,VALID,97.1493,VALID,0,VALID,16.8867,VALID,143,VALID,0,
2000-03-09, 02:00:00,VALID,0,VALID,97.2294,VALID,0,VALID,16.9286,VALID,143,VALID,0,
2000-03-09, 02:01:00,VALID,0,VALID,97.4469,VALID,-0.0169808,VALID,17.0257,VALID,143,VALID,0,
2000-03-09, 02:02:00,VALID,0,VALID,96.923,VALID,-0.0169808,VALID,17.0831,VALID,177,VALID,0,
2000-03-09, 02:03:00,VALID,0,VALID,95.453,VALID,0.0169808,VALID,17.0736,VALID,214,VALID,0.493215,
2000-03-09, 02:04:00,VALID,0,VALID,95.3703,VALID,0,VALID,17.0414,VALID,210,VALID,0.865498,
2000-03-09, 02:05:00,VALID,0,VALID,95.9731,VALID,-0.0169808,VALID,17.0289,VALID,197,VALID,0.677632,
2000-03-09, 02:06:00,VALID,0,VALID,95.9019,VALID,0,VALID,16.9768,VALID,178,VALID,0.75884,
2000-03-09, 02:07:00,VALID,0,VALID,95.7963,VALID,-0.0169808,VALID,16.922,VALID,162,VALID,0.796684,
2000-03-09, 02:08:00,VALID,0,VALID,96.071,VALID,0,VALID,16.8671,VALID,162,VALID,0.704687,
2000-03-09, 02:09:00,VALID,0,VALID,96.5618,VALID,0.0169808,VALID,16.8445,VALID,165,VALID,0.431332,
2000-03-09, 02:10:00,VALID,0,VALID,96.5835,VALID,0,VALID,16.809,VALID,171,VALID,0.0349609,
2000-03-09, 02:11:00,VALID,0,VALID,96.792,VALID,0,VALID,16.7832,VALID,171,VALID,0.00130208,
2000-03-09, 02:12:00,VALID,0,VALID,96.778,VALID,0.0169808,VALID,16.767,VALID,171,VALID,0,
2000-03-09, 02:13:01,VALID,0,VALID,97.19,VALID,-0.0169808,VALID,16.7935,VALID,171,VALID,0,
2000-03-09, 02:14:01,VALID,0,VALID,97.3846,VALID,0,VALID,16.7836,VALID,171,VALID,0,
2000-03-09, 02:15:00,VALID,0,VALID,97.7521,VALID,0,VALID,16.832,VALID,171,VALID,0,
2000-03-09, 02:16:00,VALID,0,VALID,97.8195,VALID,0.0169808,VALID,16.8445,VALID,171,VALID,0,
2000-03-09, 02:17:00,VALID,0,VALID,97.6808,VALID,-0.0169808,VALID,16.8383,VALID,171,VALID,0,
2000-03-09, 02:18:00,VALID,0,VALID,97.4863,VALID,0,VALID,16.835,VALID,184,VALID,0,
2000-03-09, 02:19:00,VALID,0,VALID,97.3693,VALID,0,VALID,16.8058,VALID,193,VALID,0,
2000-03-09, 02:20:00,VALID,0,VALID,97.8411,VALID,0,VALID,16.8578,VALID,193,VALID,0,
2000-03-09, 02:21:00,VALID,0,VALID,97.4609,VALID,0,VALID,16.8834,VALID,193,VALID,0,
2000-03-09, 02:22:00,VALID,0,VALID,96.8009,VALID,0,VALID,16.8092,VALID,193,VALID,0,
2000-03-09, 02:23:00,VALID,0,VALID,96.8187,VALID,-0.0509425,VALID,16.7638,VALID,193,VALID,0,
2000-03-09, 02:24:00,VALID,0,VALID,97.1124,VALID,-0.0169808,VALID,16.761,VALID,193,VALID,0,
2000-03-09, 02:25:00,VALID,0,VALID,97.3477,VALID,-0.0509425,VALID,16.7513,VALID,192,VALID,0,
2000-03-09, 02:26:00,VALID,0,VALID,96.661,VALID,-0.0169808,VALID,16.6741,VALID,169,VALID,0,
2000-03-09, 02:27:00,VALID,0,VALID,96.9039,VALID,0,VALID,16.6317,VALID,167,VALID,0,
2000-03-09, 02:28:00,VALID,0,VALID,97.1531,VALID,0,VALID,16.622,VALID,167,VALID,0,
2000-03-09, 02:29:00,VALID,0,VALID,97.1926,VALID,-0.0169808,VALID,16.6029,VALID,167,VALID,0,
2000-03-09, 02:30:00,VALID,0,VALID,97.452,VALID,-0.0169808,VALID,16.5964,VALID,167,VALID,0,
2000-03-09, 02:31:00,VALID,0,VALID,97.8169,VALID,-0.0169808,VALID,16.6186,VALID,171,VALID,0,
2000-03-09, 02:32:00,VALID,0,VALID,97.9097,VALID,-0.0169808,VALID,16.6678,VALID,190,VALID,0,
2000-03-09, 02:33:00,VALID,0,VALID,97.7648,VALID,-0.0169808,VALID,16.6605,VALID,210,VALID,0.254112,
2000-03-09, 02:34:00,VALID,0,VALID,97.2205,VALID,-0.0509425,VALID,16.6065,VALID,219,VALID,0.683066,
2000-03-09, 02:35:01,VALID,0,VALID,97.1557,VALID,-0.0509425,VALID,16.5712,VALID,230,VALID,0.75514,
2000-03-09, 02:36:00,VALID,0,VALID,96.9904,VALID,-0.0169808,VALID,16.526,VALID,222,VALID,0.688117,
2000-03-09, 02:37:00,VALID,0,VALID,97.1137,VALID,-0.0169808,VALID,16.4996,VALID,209,VALID,0.55202,
2000-03-09, 02:38:00,VALID,0,VALID,97.2396,VALID,-0.0169808,VALID,16.4931,VALID,191,VALID,0.559961,
2000-03-09, 02:39:00,VALID,0,VALID,97.7559,VALID,0,VALID,16.5288,VALID,177,VALID,0.699424,
2000-03-09, 02:40:00,VALID,0,VALID,97.424,VALID,-0.0169808,VALID,16.4897,VALID,168,VALID,0.655859,
2000-03-09, 02:41:00,VALID,0,VALID,97.7393,VALID,0,VALID,16.5024,VALID,165,VALID,0.656467,
2000-03-09, 02:42:00,VALID,0,VALID,98.0356,VALID,-0.0169808,VALID,16.5514,VALID,164,VALID,0.410156,
2000-03-09, 02:43:00,VALID,0,VALID,97.5461,VALID,0,VALID,16.4903,VALID,164,VALID,0.078125,
2000-03-09, 02:44:00,VALID,0,VALID,97.3986,VALID,0,VALID,16.4746,VALID,145,VALID,0,
2000-03-09, 02:45:00,VALID,0,VALID,97.5435,VALID,-0.0339617,VALID,16.4583,VALID,127,VALID,0.00130208,
2000-03-09, 02:46:00,VALID,0,VALID,97.1748,VALID,-0.0169808,VALID,16.3804,VALID,119,VALID,0,
2000-03-09, 02:47:01,VALID,0,VALID,97.2777,VALID,-0.0339617,VALID,16.355,VALID,118,VALID,0,
2000-03-09, 02:48:00,VALID,0,VALID,97.822,VALID,0,VALID,16.4064,VALID,117,VALID,0,
2000-03-09, 02:49:00,VALID,0,VALID,97.9161,VALID,-0.0339617,VALID,16.4064,VALID,117,VALID,0,
2000-03-09, 02:50:00,VALID,0,VALID,98.0712,VALID,-0.0339617,VALID,16.4454,VALID,117,VALID,0,
2000-03-09, 02:51:00,VALID,0,VALID,98.1641,VALID,-0.0169808,VALID,16.4706,VALID,240,VALID,0,
2000-03-09, 02:52:00,VALID,0,VALID,98.3319,VALID,-0.0679233,VALID,16.5396,VALID,249,VALID,0,
2000-03-09, 02:53:00,VALID,0,VALID,98.4031,VALID,-0.152827,VALID,16.634,VALID,237,VALID,0,
2000-03-09, 02:54:00,VALID,0,VALID,97.7953,VALID,-0.135847,VALID,16.6211,VALID,217,VALID,0.614515,
2000-03-09, 02:55:00,VALID,0,VALID,97.4901,VALID,-0.135847,VALID,16.5757,VALID,212,VALID,0.688672,
2000-03-09, 02:56:00,VALID,0,VALID,97.2294,VALID,-0.101885,VALID,16.5594,VALID,211,VALID,0.489583,
2000-03-09, 02:57:00,VALID,0,VALID,97.012,VALID,-0.101885,VALID,16.5303,VALID,209,VALID,0.417383,
2000-03-09, 02:58:01,VALID,0,VALID,97.2612,VALID,-0.135847,VALID,16.5333,VALID,197,VALID,0.357772,
2000-03-09, 02:59:00,VALID,0,VALID,97.3083,VALID,-0.135847,VALID,16.5436,VALID,187,VALID,0.615748,
2000-03-09, 03:00:00,VALID,0,VALID,97.3032,VALID,-0.118866,VALID,16.52,VALID,183,VALID,0.558377,
2000-03-09, 03:01:00,VALID,0,VALID,97.2549,VALID,-0.101885,VALID,16.5239,VALID,181,VALID,0.462054,
2000-03-09, 03:02:00,VALID,0,VALID,97.2409,VALID,-0.152827,VALID,16.5109,VALID,181,VALID,0.424959,
2000-03-09, 03:03:00,VALID,0,VALID,96.7284,VALID,-0.101885,VALID,16.4528,VALID,164,VALID,0.506785,
2000-03-09, 03:04:00,VALID,0,VALID,95.701,VALID,-0.118866,VALID,16.3496,VALID,160,VALID,0.259924,
2000-03-09, 03:05:00,VALID,0,VALID,96.0494,VALID,-0.135847,VALID,16.3046,VALID,161,VALID,0.0904605,
2000-03-09, 03:06:00,VALID,0,VALID,96.5173,VALID,-0.118866,VALID,16.2788,VALID,161,VALID,0,
2000-03-09, 03:07:00,VALID,0,VALID,97.1913,VALID,-0.0679233,VALID,16.2747,VALID,165,VALID,0.320694,
2000-03-09, 03:08:00,VALID,0,VALID,97.8652,VALID,0,VALID,16.326,VALID,186,VALID,0.451172,
2000-03-09, 03:09:01,VALID,0,VALID,98.2187,VALID,0,VALID,16.3871,VALID,186,VALID,0.271998,
2000-03-09, 03:10:00,VALID,0,VALID,98.5112,VALID,-0.0339617,VALID,16.4645,VALID,186,VALID,0.250195,
2000-03-09, 03:11:00,VALID,0,VALID,98.6663,VALID,-0.0679233,VALID,16.5617,VALID,186,VALID,0.220269,
2000-03-09, 03:12:00,VALID,0,VALID,98.5125,VALID,-0.0339617,VALID,16.5712,VALID,186,VALID,0.0414063,
2000-03-09, 03:13:00,VALID,0,VALID,98.5989,VALID,-0.0169808,VALID,16.6455,VALID,186,VALID,0,
2000-03-09, 03:14:00,VALID,0,VALID,98.4705,VALID,-0.0169808,VALID,16.645,VALID,186,VALID,0,
2000-03-09, 03:15:00,VALID,0,VALID,98.3637,VALID,-0.0169808,VALID,16.6713,VALID,186,VALID,0,
2000-03-09, 03:16:00,VALID,0,VALID,98.2404,VALID,0,VALID,16.7162,VALID,186,VALID,0,
2000-03-09, 03:17:00,VALID,0,VALID,97.7241,VALID,-0.0509425,VALID,16.6971,VALID,185,VALID,0.00657895,
2000-03-09, 03:18:00,VALID,0,VALID,97.218,VALID,0,VALID,16.6424,VALID,152,VALID,0.430921,
2000-03-09, 03:19:00,VALID,0,VALID,97.4927,VALID,-0.0169808,VALID,16.6386,VALID,144,VALID,0.351351,
2000-03-09, 03:20:01,VALID,0,VALID,97.4927,VALID,0,VALID,16.6485,VALID,144,VALID,0.196957,
2000-03-09, 03:21:00,VALID,0,VALID,97.4927,VALID,0,VALID,16.6517,VALID,144,VALID,0.206414,
2000-03-09, 03:22:00,VALID,0,VALID,97.3744,VALID,-0.0509425,VALID,16.6422,VALID,144,VALID,0.196646,
2000-03-09, 03:23:00,VALID,0,VALID,97.5435,VALID,-0.101885,VALID,16.6751,VALID,144,VALID,0,
2000-03-09, 03:24:00,VALID,0,VALID,97.8818,VALID,-0.101885,VALID,16.7403,VALID,144,VALID,0,
2000-03-09, 03:25:00,VALID,0,VALID,98.0178,VALID,-0.0679233,VALID,16.7823,VALID,144,VALID,0,
2000-03-09, 03:26:00,VALID,0,VALID,98.2289,VALID,-0.101885,VALID,16.8208,VALID,144,VALID,0,
2000-03-09, 03:27:00,VALID,0,VALID,98.2632,VALID,-0.118866,VALID,16.8658,VALID,151,VALID,0,
2000-03-09, 03:28:00,VALID,0,VALID,98.1958,VALID,-0.101885,VALID,16.9112,VALID,157,VALID,0.0328526,
2000-03-09, 03:29:01,VALID,0,VALID,97.7381,VALID,-0.101885,VALID,16.8978,VALID,158,VALID,0.132813,
2000-03-09, 03:30:00,VALID,0,VALID,96.8848,VALID,-0.101885,VALID,16.8208,VALID,157,VALID,0,
2000-03-09, 03:31:01,VALID,0,VALID,95.4047,VALID,-0.118866,VALID,16.679,VALID,150,VALID,0,
2000-03-09, 03:32:00,VALID,0,VALID,94.8528,VALID,-0.101885,VALID,16.5273,VALID,113,VALID,0,
2000-03-09, 03:33:00,VALID,0,VALID,95.9642,VALID,-0.0849042,VALID,16.43,VALID,92,VALID,0.407484,
2000-03-09, 03:34:00,VALID,0,VALID,96.8378,VALID,-0.101885,VALID,16.4236,VALID,74,VALID,0.741976,
2000-03-09, 03:35:00,VALID,0,VALID,97.616,VALID,-0.101885,VALID,16.5398,VALID,63,VALID,0.749794,
2000-03-09, 03:36:00,VALID,0,VALID,97.335,VALID,-0.0679233,VALID,16.6263,VALID,63,VALID,0.425987,
2000-03-09, 03:37:00,VALID,0,VALID,96.998,VALID,-0.0169808,VALID,16.6713,VALID,83,VALID,0.279726,
2000-03-09, 03:38:00,VALID,0,VALID,96.8874,VALID,0,VALID,16.719,VALID,78,VALID,0.333594,
2000-03-09, 03:39:00,VALID,0,VALID,96.3686,VALID,0.0169808,VALID,16.7162,VALID,88,VALID,0.15111,
2000-03-09, 03:40:00,VALID,0,VALID,96.3151,VALID,0.0169808,VALID,16.7126,VALID,88,VALID,0.275977,
2000-03-09, 03:41:00,VALID,0,VALID,96.1791,VALID,0,VALID,16.687,VALID,88,VALID,0,
2000-03-09, 03:42:00,VALID,0,VALID,97.087,VALID,0.0169808,VALID,16.7382,VALID,89,VALID,0.0173828,
2000-03-09, 03:43:00,VALID,0,VALID,97.3706,VALID,0,VALID,16.7838,VALID,89,VALID,0,
2000-03-09, 03:44:00,VALID,0,VALID,97.0463,VALID,0,VALID,16.7513,VALID,89,VALID,0,
2000-03-09, 03:45:00,VALID,0,VALID,96.8505,VALID,0,VALID,16.7449,VALID,57,VALID,0,
2000-03-09, 03:46:00,VALID,0,VALID,96.9637,VALID,0,VALID,16.8064,VALID,54,VALID,0.540179,
2000-03-09, 03:47:00,VALID,0,VALID,95.7684,VALID,0,VALID,16.7806,VALID,91,VALID,0.269326,
2000-03-09, 03:48:00,VALID,0,VALID,95.5433,VALID,0,VALID,16.7995,VALID,81,VALID,0.0400905,
2000-03-09, 03:49:00,VALID,0,VALID,94.9761,VALID,0.0169808,VALID,16.8004,VALID,88,VALID,0.0240709,
2000-03-09, 03:50:00,VALID,0,VALID,95.5878,VALID,0.0339617,VALID,16.7999,VALID,88,VALID,0,
2000-03-09, 03:51:00,VALID,0,VALID,96.0265,VALID,0.0169808,VALID,16.8225,VALID,113,VALID,0.0125411,
2000-03-09, 03:52:00,VALID,0,VALID,95.9235,VALID,0,VALID,16.8453,VALID,188,VALID,0.460175,
2000-03-09, 03:53:00,VALID,0,VALID,96.0748,VALID,0.0509425,VALID,16.8772,VALID,210,VALID,0.674279,
2000-03-09, 03:54:00,VALID,0,VALID,95.0346,VALID,0.0169808,VALID,16.8742,VALID,202,VALID,0.458882,
2000-03-09, 03:55:00,VALID,0,VALID,94.9367,VALID,0,VALID,16.8481,VALID,187,VALID,0.632422,
2000-03-09, 03:56:00,VALID,0,VALID,95.1936,VALID,0.0339617,VALID,16.8094,VALID,191,VALID,0.721571,
2000-03-09, 03:57:00,VALID,0,VALID,95.3373,VALID,0,VALID,16.7483,VALID,183,VALID,0.60293,
2000-03-09, 03:58:00,VALID,0,VALID,95.514,VALID,0,VALID,16.6962,VALID,189,VALID,0.586739,
2000-03-09, 03:59:00,VALID,0,VALID,95.6768,VALID,0.0169808,VALID,16.6448,VALID,188,VALID,0.592311,
2000-03-09, 04:00:00,VALID,0,VALID,95.8663,VALID,0.0169808,VALID,16.5964,VALID,186,VALID,0.558594,
2000-03-09, 04:01:00,VALID,0,VALID,95.6081,VALID,0,VALID,16.5222,VALID,193,VALID,0.528348,
2000-03-09, 04:02:00,VALID,0,VALID,95.5585,VALID,0,VALID,16.4544,VALID,200,VALID,0.512952,
2000-03-09, 04:03:00,VALID,0,VALID,95.3525,VALID,0,VALID,16.3641,VALID,200,VALID,0.385074,
2000-03-09, 04:04:00,VALID,0,VALID,95.7226,VALID,0,VALID,16.3025,VALID,199,VALID,0.0586993,
2000-03-09, 04:05:00,VALID,0,VALID,96.188,VALID,0,VALID,16.2711,VALID,199,VALID,0,
2000-03-09, 04:06:00,VALID,0,VALID,96.9357,VALID,0.0339617,VALID,16.2608,VALID,199,VALID,0,
2000-03-09, 04:07:00,VALID,0,VALID,96.9446,VALID,0.0169808,VALID,16.2253,VALID,189,VALID,0.238567,
2000-03-09, 04:08:00,VALID,0,VALID,96.956,VALID,0,VALID,16.1934,VALID,184,VALID,0.308008,
2000-03-09, 04:09:00,VALID,0,VALID,97.232,VALID,0.0169808,VALID,16.1638,VALID,184,VALID,0.189556,
2000-03-09, 04:10:00,VALID,0,VALID,97.2498,VALID,0,VALID,16.1513,VALID,194,VALID,0.245898,
2000-03-09, 04:11:00,VALID,0,VALID,97.3591,VALID,0.0169808,VALID,16.1384,VALID,207,VALID,0.667752,
2000-03-09, 04:12:00,VALID,0,VALID,96.9789,VALID,0,VALID,16.0773,VALID,206,VALID,0.714844,
2000-03-09, 04:13:01,VALID,0,VALID,97.059,VALID,0.0339617,VALID,16.0517,VALID,210,VALID,0.695112,
2000-03-09, 04:14:01,VALID,0,VALID,97.471,VALID,0,VALID,16.0607,VALID,214,VALID,0.554276,
2000-03-09, 04:15:00,VALID,0,VALID,97.6554,VALID,0.0169808,VALID,16.0803,VALID,220,VALID,0.63303,
2000-03-09, 04:16:00,VALID,0,VALID,97.8996,VALID,0,VALID,16.1224,VALID,236,VALID,0.690179,